Location: Deurze
(52.9838°N, 6.6090°E)
Time: 08:23:47
(UTC+00:00)

NOSS 3-2 (A) - Visible Passes

Search period start: 09 June 2026 00:00
Search period end: 19 June 2026 00:00
Orbit: 669 x 1534 km, 63.4° (Epoch: 2 January)

Date Brightness Start Highest point End Pass type
(mag) Time Alt. Az. Time Alt. Az. Time Alt. Az.
9 Jun 5.1 00:15:48 10° WNW 00:21:04 36° N 00:27:27 10° NE visible
9 Jun 5.4 02:07:34 10° NW 02:13:28 38° NNE 02:20:37 10° E visible
9 Jun 3.2 21:37:58 10° SW 21:43:06 82° SE 21:49:24 10° NE visible
9 Jun 4.8 23:29:14 10° W 23:34:29 40° NNW 23:40:52 10° NE visible
10 Jun 5.5 01:21:12 10° WNW 01:26:50 35° N 01:33:39 10° ENE visible
10 Jun 3.3 20:52:09 10° SSW 20:57:05 55° SE 21:03:02 10° NE visible
10 Jun 4.4 22:42:44 10° WSW 22:47:58 48° NNW 22:54:24 10° NE visible
11 Jun 5.4 00:34:45 10° WNW 00:40:10 34° N 00:46:44 10° ENE visible
11 Jun 3.8 21:56:20 10° WSW 22:01:35 63° NW 22:08:01 10° NE visible
11 Jun 5.3 23:48:13 10° WNW 23:53:31 34° N 23:59:55 10° ENE visible
12 Jun 5.3 01:39:51 10° NW 01:45:53 41° NNE 01:53:14 10° E visible
12 Jun 3.3 21:10:08 10° SW 21:15:19 86° NW 21:21:42 10° NE visible
12 Jun 5.1 23:01:38 10° W 23:06:53 38° NNW 23:13:16 10° NE visible
13 Jun 5.4 00:53:32 10° NW 00:59:16 36° NNE 01:06:14 10° ENE visible
13 Jun 4.7 22:15:06 10° W 22:20:20 44° NNW 22:26:45 10° NE visible
14 Jun 5.5 00:07:06 10° WNW 00:12:37 34° N 00:19:16 10° ENE visible
14 Jun 4.9 01:58:19 10° NW 02:04:47 52° NNE 02:12:45 10° ESE visible
14 Jun 4.2 21:28:39 10° WSW 21:33:53 55° NNW 21:40:20 10° NE visible
14 Jun 5.4 23:20:36 10° WNW 23:25:57 34° N 23:32:24 10° ENE visible
15 Jun 5.2 01:12:06 10° NW 01:18:17 44° NNE 01:25:50 10° E visible
15 Jun 3.6 20:42:21 10° SW 20:47:34 74° NW 20:53:59 10° NE visible
15 Jun 5.2 22:34:02 10° WNW 22:39:18 36° NNW 22:45:41 10° NE visible
16 Jun 5.4 00:25:49 10° NW 00:31:42 38° NNE 00:38:50 10° E visible
16 Jun 4.4 02:16:42 10° NW 02:23:32 72° NE 02:31:58 10° ESE visible
16 Jun 4.9 21:47:28 10° W 21:52:43 41° NNW 21:59:06 10° NE visible
16 Jun 5.4 23:39:27 10° WNW 23:45:03 35° N 23:51:49 10° ENE visible
17 Jun 4.7 01:30:32 10° NW 01:37:08 58° NNE 01:45:16 10° ESE visible
17 Jun 4.5 21:00:58 10° WSW 21:06:13 49° NNW 21:12:38 10° NE visible
17 Jun 5.4 22:52:59 10° WNW 22:58:23 34° N 23:04:55 10° ENE visible
18 Jun 5.0 00:44:21 10° NW 00:50:40 47° NNE 00:58:23 10° E visible
18 Jun 5.3 22:06:26 10° WNW 22:11:43 35° N 22:18:08 10° ENE visible
